[[{"header":{"parameterUnit":"m.s-1","parameterCategory":1,"la1":30.2991,"la2":30.254,"lo1":-89.0895,"lo2":-89.0444,"dy":0.0017,"dx":0.0017,"nx":28,"ny":28,"refTime":"2024-08-21T09:00:00:Z","depth":0,"parameterNumber":2,"parameterNumberName":"U-component_of_WINDS"},"data":[0,0,0,0,0,0,0,0,0,0,0,0,0,0,0,0,0,0,0,0,0,0,0,0,0,0,0,0,0,0,0,0,0,0,0,0,0,0,0,0,0,0,0,0,0,0,0,0,0,0,0,0,0,0,0,0,0,0,-1.4239,-1.4239,0,-1.4187,-1.4186,-1.4186,-1.4137,-1.4136,-1.4135,-1.4135,-1.408,-1.408,-1.4079,0,0,0,0,0,0,0,0,0,0,0,0,0,-1.4296,-1.4296,-1.4239,-1.4239,-1.4238,-1.4187,-1.4186,-1.4185,-1.4137,-1.4136,-1.4135,-1.4135,-1.4081,-1.408,-1.4079,0,0,0,0,0,0,0,0,0,0,0,0,0,-1.4261,-1.4295,-1.4239,-1.4208,-1.4204,-1.4187,-1.4186,-1.4185,-1.4137,-1.4136,-1.4135,-1.4134,-1.4081,-1.408,-1.4078,-1.4088,0,0,-1.4074,-1.4074,0,0,0,0,0,0,0,0,-1.4263,-1.4259,-1.4213,-1.421,-1.4206,-1.4167,-1.4186,-1.4153,-1.4137,-1.4162,-1.4135,-1.4134,-1.411,-1.4106,-1.4098,-1.4086,-1.4084,-1.4074,-1.4073,-1.4073,-1.4073,0,0,0,0,0,0,0,-1.4265,-1.4261,-1.4218,-1.4212,-1.4208,-1.4196,-1.4189,-1.418,-1.4142,-1.416,-1.4156,-1.4151,-1.4108,-1.41,-1.4097,-1.4083,-1.4074,-1.4073,-1.4072,-1.4072,-1.4076,-1.4077,0,0,0,0,0,0,-1.4273,-1.4263,-1.422,-1.4217,-1.4233,-1.4195,-1.4188,-1.4181,-1.4142,-1.4135,-1.4152,-1.4149,-1.4103,-1.4098,-1.4095,-1.4104,-1.4073,-1.4072,-1.4071,-1.4075,-1.4076,-1.4077,0,0,0,0,0,0,-1.4274,-1.4269,-1.4222,-1.4239,-1.4232,-1.4195,-1.4187,-1.418,-1.4172,-1.4136,-1.4129,-1.4151,-1.4102,-1.4097,-1.409,-1.4102,-1.4071,-1.407,-1.4074,-1.4075,-1.4076,-1.4123,0,0,0,0,0,0,-1.4276,-1.427,-1.4274,-1.4239,-1.4231,-1.4219,-1.4188,-1.418,-1.417,-1.4166,-1.4133,-1.4126,-1.4101,-1.4093,-1.4089,-1.4099,-1.4069,-1.4073,-1.4074,-1.4076,-1.412,-1.4126,-1.4131,0,0,0,0,0,-1.4278,-1.4289,-1.4274,-1.4269,-1.4235,-1.422,-1.4215,-1.4186,-1.4171,-1.4174,-1.4151,-1.4127,-1.4101,-1.4092,-1.4088,-1.4098,-1.4072,-1.4074,-1.4076,-1.4118,-1.4125,-1.413,0,0,0,0,0,0,-1.4325,-1.4284,-1.4267,-1.4267,-1.4248,-1.4212,-1.4215,-1.4194,-1.4178,-1.4175,-1.4138,-1.4131,-1.4129,-1.4113,-1.4104,-1.4105,-1.4083,-1.4084,-1.4117,-1.4123,-1.4128,-1.4132,-1.4068,0,0,0,0,0,-1.4336,-1.4327,-1.4291,-1.4295,-1.4286,-1.4252,-1.4245,-1.4224,-1.4202,-1.4193,-1.4169,-1.4149,-1.4136,-1.4128,-1.4114,-1.4117,-1.411,-1.4122,-1.4127,-1.4131,-1.4133,-1.4134,-1.4139,-1.4084,-1.4084,-1.4084,0,0,-1.4357,-1.4333,-1.433,-1.4304,-1.4286,-1.4278,-1.4246,-1.4238,-1.4232,-1.4192,-1.4185,-1.4167,-1.4141,-1.414,-1.4138,-1.4126,-1.4147,-1.4134,-1.4138,-1.4137,-1.4137,-1.4142,-1.4147,-1.4085,-1.4085,-1.4084,0,0,-1.4392,-1.4373,-1.4374,-1.4357,-1.4331,-1.4309,-1.4309,-1.4277,-1.4263,-1.4255,-1.4225,-1.4217,-1.4195,-1.4179,-1.4167,-1.4196,-1.4174,-1.4192,-1.4219,-1.422,-1.4225,-1.4228,-1.4239,-1.4244,-1.4194,-1.4194,-1.4194,0,-1.4422,-1.4409,-1.4377,-1.4372,-1.4361,-1.4325,-1.4325,-1.431,-1.4281,-1.4274,-1.4261,-1.4233,-1.4213,-1.4208,-1.4215,-1.4207,-1.4206,-1.4196,-1.4227,-1.423,-1.4233,-1.4243,-1.4247,-1.4197,-1.4196,-1.4196,-1.4196,0,-1.4448,-1.4439,-1.4443,-1.4416,-1.4405,-1.4403,-1.4371,-1.4364,-1.4343,-1.4322,-1.4315,-1.429,-1.4271,-1.4267,-1.4247,-1.4259,-1.4253,-1.4233,-1.421,-1.4241,-1.425,-1.4254,-1.42,-1.4199,-1.4198,-1.4198,0,0,-1.4512,-1.4467,-1.4469,-1.4457,-1.4425,-1.4417,-1.4413,-1.4394,-1.4389,-1.437,-1.4366,-1.4348,-1.433,-1.4318,-1.4295,-1.4296,-1.4321,-1.4277,-1.4276,-1.4287,-1.4333,-1.4349,-1.4354,-1.4306,-1.4307,-1.4307,-1.4336,0,-1.4542,-1.4533,-1.4504,-1.4504,-1.4496,-1.4461,-1.4457,-1.4437,-1.4417,-1.4407,-1.4385,-1.4373,-1.435,-1.4342,-1.4342,-1.4319,-1.433,-1.4316,-1.4302,-1.4302,-1.4311,-1.4358,-1.4374,-1.4403,-1.4339,-1.434,-1.434,0,-1.4577,-1.456,-1.456,-1.4528,-1.4524,-1.4521,-1.4502,-1.4492,-1.4469,-1.4454,-1.444,-1.4415,-1.4409,-1.4387,-1.4378,-1.4368,-1.4361,-1.4348,-1.4349,-1.4347,-1.4324,-1.4359,-1.4411,-1.4416,-1.4345,-1.4344,-1.4344,0,-1.4625,-1.4602,-1.4599,-1.4589,-1.4552,-1.4551,-1.4536,-1.4511,-1.4502,-1.4485,-1.4478,-1.446,-1.4451,-1.4437,-1.4408,-1.4395,-1.4403,-1.4378,-1.4391,-1.4392,-1.4395,-1.4395,-1.4448,-1.4389,-1.4388,-1.4388,-1.4388,0,-1.4662,-1.4663,-1.462,-1.4618,-1.4618,-1.4584,-1.4585,-1.4566,-1.4545,-1.4539,-1.4507,-1.4501,-1.4463,-1.4453,-1.443,-1.4426,-1.4422,-1.441,-1.4404,-1.4414,-1.4415,-1.4409,-1.4407,-1.4389,-1.4389,-1.4389,-1.4389,0,-1.4716,-1.4687,-1.4681,-1.4647,-1.4638,-1.464,-1.4611,-1.4607,-1.4585,-1.4578,-1.4574,-1.4539,-1.4526,-1.4496,-1.4474,-1.4459,-1.4461,-1.445,-1.4469,-1.4466,-1.4481,-1.448,-1.4532,-1.4537,-1.4474,-1.4475,-1.4475,0,-1.4743,-1.4743,-1.4709,-1.4702,-1.4688,-1.4678,-1.4669,-1.4635,-1.4626,-1.46,-1.46,-1.4584,-1.457,-1.455,-1.4523,-1.4507,-1.4495,-1.4514,-1.4493,-1.4502,-1.4497,-1.4498,-1.4498,-1.452,-1.4521,-1.4521,-1.4522,0,-1.4793,-1.4779,-1.4766,-1.4749,-1.4738,-1.4723,-1.4705,-1.4702,-1.4664,-1.4656,-1.4642,-1.4631,-1.4609,-1.4594,-1.4574,-1.4557,-1.4534,-1.4529,-1.4531,-1.4541,-1.4553,-1.4548,-1.4484,-1.4528,-1.4527,-1.4527,-1.4527,-1.4526,-1.4834,-1.4833,-1.4809,-1.4796,-1.478,-1.4764,-1.476,-1.4737,-1.4725,-1.4705,-1.4686,-1.4674,-1.4651,-1.4621,-1.4606,-1.4596,-1.4584,-1.4587,-1.4588,-1.459,-1.4594,-1.4554,-1.4592,-1.4592,-1.4592,-1.4592,-1.4591,0,-1.4884,-1.4867,-1.4855,-1.4832,-1.4822,-1.48,-1.478,-1.4773,-1.4763,-1.4743,-1.473,-1.4715,-1.47,-1.4672,-1.4654,-1.4652,-1.4641,-1.4649,-1.4649,-1.4646,-1.4606,-1.4606,-1.4658,-1.4658,-1.4658,-1.4658,-1.4658,-1.4658,-1.4908,-1.4905,-1.4888,-1.4876,-1.4858,-1.4847,-1.4838,-1.4823,-1.4807,-1.4791,-1.4779,-1.4761,-1.4738,-1.4718,-1.4704,-1.4696,-1.4692,-1.4703,-1.4692,-1.4655,-1.4649,-1.4643,-1.4643,-1.4702,-1.4702,-1.4733,-1.4734,-1.4734]},{"header":{"parameterUnit":"m.s-1","parameterCategory":1,"la1":30.2991,"la2":30.254,"lo1":-89.0895,"lo2":-89.0444,"dy":0.0017,"dx":0.0017,"nx":28,"ny":28,"refTime":"2024-08-21T09:00:00:Z","depth":0,"parameterNumber":3,"parameterNumberName":"V-component_of_WINDS"},"data":[0,0,0,0,0,0,0,0,0,0,0,0,0,0,0,0,0,0,0,0,0,0,0,0,0,0,0,0,0,0,0,0,0,0,0,0,0,0,0,0,0,0,0,0,0,0,0,0,0,0,0,0,0,0,0,0,0,0,-1.487,-1.4869,0,-1.4813,-1.4812,-1.4812,-1.4803,-1.4803,-1.4804,-1.4804,-1.4743,-1.4741,-1.4739,0,0,0,0,0,0,0,0,0,0,0,0,0,-1.4968,-1.4966,-1.487,-1.4869,-1.4868,-1.4813,-1.4812,-1.4812,-1.4802,-1.4803,-1.4804,-1.4804,-1.4743,-1.4741,-1.4738,0,0,0,0,0,0,0,0,0,0,0,0,0,-1.492,-1.4966,-1.487,-1.4857,-1.4856,-1.4813,-1.4812,-1.4811,-1.4802,-1.4803,-1.4804,-1.4805,-1.4744,-1.4741,-1.4738,-1.4703,0,0,-1.4728,-1.4727,0,0,0,0,0,0,0,0,-1.4922,-1.4916,-1.486,-1.4858,-1.4856,-1.4816,-1.4824,-1.4775,-1.4802,-1.4822,-1.4804,-1.4805,-1.4766,-1.4761,-1.4749,-1.4701,-1.4698,-1.4728,-1.4726,-1.4725,-1.4724,0,0,0,0,0,0,0,-1.4926,-1.4918,-1.4847,-1.4859,-1.4857,-1.4854,-1.4848,-1.4815,-1.4791,-1.4821,-1.482,-1.4813,-1.4765,-1.4752,-1.4747,-1.4697,-1.4728,-1.4725,-1.4724,-1.4722,-1.4619,-1.4618,0,0,0,0,0,0,-1.4932,-1.4921,-1.4849,-1.4846,-1.4892,-1.4851,-1.4845,-1.4828,-1.4791,-1.4786,-1.4813,-1.4813,-1.4757,-1.4751,-1.4745,-1.4703,-1.4725,-1.4722,-1.472,-1.462,-1.4619,-1.4618,0,0,0,0,0,0,-1.4934,-1.4925,-1.4851,-1.4883,-1.4874,-1.4849,-1.483,-1.4826,-1.4813,-1.4785,-1.478,-1.4804,-1.4757,-1.475,-1.4714,-1.4701,-1.4721,-1.4718,-1.4621,-1.4619,-1.4618,-1.4619,0,0,0,0,0,0,-1.4937,-1.4926,-1.4913,-1.4883,-1.4872,-1.4822,-1.4829,-1.4825,-1.4808,-1.4808,-1.4776,-1.4771,-1.4757,-1.4719,-1.4711,-1.4697,-1.4715,-1.4622,-1.462,-1.4619,-1.462,-1.4618,-1.4616,0,0,0,0,0,-1.494,-1.4915,-1.4913,-1.4904,-1.4855,-1.4822,-1.4815,-1.4801,-1.4807,-1.4794,-1.4776,-1.4772,-1.4704,-1.4716,-1.4707,-1.4691,-1.4622,-1.4621,-1.4619,-1.4621,-1.4618,-1.4616,0,0,0,0,0,0,-1.4943,-1.4911,-1.4908,-1.4872,-1.485,-1.482,-1.4803,-1.4798,-1.4773,-1.4774,-1.4756,-1.4749,-1.4715,-1.4699,-1.4713,-1.4657,-1.4663,-1.466,-1.4668,-1.4666,-1.4664,-1.4669,-1.4713,0,0,0,0,0,-1.494,-1.4916,-1.4888,-1.4859,-1.4848,-1.4828,-1.4812,-1.4803,-1.4779,-1.4769,-1.4749,-1.4725,-1.4698,-1.4681,-1.4654,-1.4617,-1.4611,-1.4602,-1.4601,-1.4599,-1.4596,-1.4577,-1.4573,-1.4611,-1.4611,-1.4611,0,0,-1.4932,-1.4911,-1.4897,-1.4859,-1.4841,-1.4816,-1.482,-1.4793,-1.4774,-1.4765,-1.4731,-1.4715,-1.4687,-1.4652,-1.4635,-1.4637,-1.4584,-1.4597,-1.4596,-1.4594,-1.4574,-1.4571,-1.4568,-1.461,-1.461,-1.461,0,0,-1.4906,-1.4888,-1.4862,-1.4844,-1.4817,-1.4804,-1.4797,-1.4768,-1.4758,-1.4724,-1.4717,-1.4694,-1.4648,-1.4629,-1.4613,-1.458,-1.4576,-1.4572,-1.4562,-1.4543,-1.454,-1.4537,-1.4527,-1.4523,-1.4569,-1.4569,-1.4569,0,-1.49,-1.4863,-1.4849,-1.4824,-1.4808,-1.4799,-1.4773,-1.4756,-1.4721,-1.471,-1.4713,-1.4657,-1.4637,-1.4597,-1.4589,-1.4576,-1.4569,-1.4576,-1.4542,-1.4539,-1.4536,-1.4526,-1.4522,-1.4569,-1.4569,-1.4569,-1.4569,0,-1.4858,-1.4832,-1.4815,-1.4783,-1.4765,-1.4739,-1.4721,-1.4704,-1.4697,-1.4683,-1.4648,-1.4625,-1.4594,-1.4584,-1.4575,-1.4543,-1.4546,-1.4546,-1.4552,-1.4533,-1.4523,-1.4519,-1.4569,-1.4569,-1.4569,-1.4569,0,0,-1.4832,-1.4794,-1.4788,-1.4774,-1.4744,-1.4723,-1.4697,-1.4668,-1.4655,-1.463,-1.4608,-1.457,-1.4571,-1.4553,-1.4542,-1.4525,-1.4503,-1.4528,-1.4527,-1.4525,-1.4467,-1.4468,-1.4463,-1.4499,-1.4499,-1.4498,-1.4469,0,-1.4803,-1.4758,-1.4745,-1.4706,-1.4683,-1.4675,-1.4652,-1.4631,-1.4617,-1.4595,-1.4579,-1.4553,-1.4554,-1.4544,-1.4527,-1.4509,-1.4491,-1.4511,-1.4479,-1.4478,-1.4487,-1.4458,-1.4459,-1.4433,-1.4465,-1.4465,-1.4464,0,-1.4764,-1.4741,-1.4701,-1.4675,-1.4665,-1.4645,-1.4618,-1.4597,-1.4572,-1.4563,-1.4544,-1.4535,-1.4507,-1.4515,-1.4476,-1.449,-1.4476,-1.4465,-1.4464,-1.4461,-1.4471,-1.4456,-1.4424,-1.4421,-1.4458,-1.4458,-1.4459,0,-1.4751,-1.471,-1.4681,-1.4669,-1.4638,-1.4624,-1.461,-1.4586,-1.457,-1.4546,-1.4536,-1.4508,-1.4494,-1.4472,-1.4456,-1.4463,-1.4419,-1.4425,-1.4411,-1.4412,-1.4403,-1.4404,-1.437,-1.4392,-1.4392,-1.4392,-1.4392,0,-1.4721,-1.4697,-1.4675,-1.4658,-1.463,-1.4615,-1.4589,-1.4574,-1.4553,-1.4532,-1.4522,-1.4502,-1.4482,-1.4459,-1.4446,-1.4417,-1.441,-1.4402,-1.4399,-1.4403,-1.4405,-1.4395,-1.4396,-1.4391,-1.4391,-1.4392,-1.4392,0,-1.4703,-1.4687,-1.4655,-1.4628,-1.4621,-1.4602,-1.4579,-1.4561,-1.4547,-1.4521,-1.4513,-1.4491,-1.4464,-1.4446,-1.441,-1.4402,-1.437,-1.4367,-1.4379,-1.4378,-1.4365,-1.4367,-1.4325,-1.4319,-1.4344,-1.4343,-1.4343,0,-1.4686,-1.4667,-1.4639,-1.4625,-1.4611,-1.4588,-1.4573,-1.4557,-1.4541,-1.4512,-1.4498,-1.447,-1.4448,-1.4404,-1.4384,-1.4358,-1.4354,-1.4341,-1.435,-1.4356,-1.4356,-1.4357,-1.4356,-1.434,-1.434,-1.434,-1.434,0,-1.4657,-1.4651,-1.4629,-1.4604,-1.4586,-1.4566,-1.4545,-1.4534,-1.4514,-1.4496,-1.447,-1.4452,-1.4417,-1.439,-1.4361,-1.4346,-1.434,-1.4337,-1.4333,-1.4338,-1.4346,-1.4343,-1.4377,-1.4338,-1.4338,-1.4339,-1.4339,-1.4339,-1.4639,-1.4623,-1.4602,-1.4578,-1.4561,-1.4542,-1.4525,-1.4509,-1.4487,-1.4458,-1.445,-1.4422,-1.4398,-1.4359,-1.4344,-1.4321,-1.4322,-1.4315,-1.4314,-1.4313,-1.4313,-1.4349,-1.4315,-1.4315,-1.4315,-1.4315,-1.4315,0,-1.4612,-1.4597,-1.4576,-1.4548,-1.453,-1.4526,-1.4504,-1.4488,-1.4464,-1.4443,-1.4421,-1.4391,-1.4365,-1.4343,-1.4316,-1.4302,-1.4298,-1.4295,-1.4297,-1.4294,-1.4313,-1.4321,-1.4299,-1.4299,-1.4299,-1.4299,-1.4299,-1.4299,-1.4595,-1.4568,-1.4559,-1.4523,-1.4509,-1.4483,-1.447,-1.4453,-1.4436,-1.4403,-1.4382,-1.4368,-1.4347,-1.4318,-1.4294,-1.4288,-1.4279,-1.4277,-1.4271,-1.429,-1.4292,-1.4294,-1.4301,-1.4275,-1.4275,-1.4253,-1.4253,-1.4253]}]]